Location: Veytaux
(46.4185°N, 6.9320°E)
Time: 20:26:56
(UTC+00:00)

SL-19 R/B - Pass Details

Date: 27 May 2022
Orbit: 796 x 1009 km, 99.5° (Epoch: 03 July)

Event Time Altitude Azimuth Distance (km) Brightness Sun altitude
Rises 02:49:20 0° 14° (NNE) 3,707 8.6 -8.6°
Reaches altitude 10° 02:51:52 10° 13° (NNE) 2,733 7.8 -8.3°
Maximum altitude 02:58:00 78° 288° (WNW) 967 4.5 -7.5°
Drops below altitude 10° 03:03:46 10° 203° (SSW) 2,579 6.2 -6.8°
Enters shadow 03:05:02 - 203° (SSW) 3,072 6.6 -6.6°
